Location: Caltech
(34.1382°N, 118.1253°W)
Time: 13:43:55
(UTC-07:00)

ASTRO E2 - Visible Passes

Search period start: 04 July 2015 00:00
Search period end: 14 July 2015 00:00
Orbit: 523 x 530 km, 31.4° (Epoch: 04 July)

Date Brightness Start Highest point End Pass type
(mag) Time Alt. Az. Time Alt. Az. Time Alt. Az.
04 Jul 3.0 03:35:22 51° SE 03:35:22 51° SE 03:38:46 10° E visible
04 Jul 3.1 05:11:30 10° W 05:15:21 44° SSW 05:19:14 10° ESE visible
05 Jul 3.8 03:22:07 34° ESE 03:22:07 34° ESE 03:24:37 10° E visible
05 Jul 3.3 04:57:22 10° W 05:01:11 40° SSW 05:04:59 10° SE visible
06 Jul 4.7 03:09:02 20° ESE 03:09:02 20° ESE 03:10:26 10° ESE visible
06 Jul 3.4 04:44:11 15° WSW 04:46:59 35° SSW 04:50:42 10° SE visible
07 Jul 5.5 02:56:10 11° ESE 02:56:10 11° ESE 02:56:16 10° ESE visible
07 Jul 3.5 04:31:20 24° SW 04:32:47 31° SSW 04:36:23 10° SE visible
08 Jul 3.7 04:18:44 27° SSW 04:18:44 27° SSW 04:22:01 10° SE visible
09 Jul 4.7 04:06:28 16° SSE 04:06:28 16° SSE 04:07:35 10° SSE visible
10 Jul 4.6 20:52:27 10° S 20:54:12 13° SSE 20:55:07 12° SE visible
11 Jul 4.5 20:37:34 10° SSW 20:39:57 15° SSE 20:42:25 10° ESE visible
11 Jul 4.6 22:16:27 10° WSW 22:17:51 19° SW 22:17:51 19° SW visible
12 Jul 3.5 22:02:12 10° WSW 22:05:07 37° SSW 22:05:07 37° SSW visible
13 Jul 2.9 21:47:56 10° WSW 21:51:51 49° S 21:52:07 48° SSE visible
